Time,TemperatureF,DewpointF,PressureIn,WindDirection,WindDirectionDegrees,WindSpeedMPH,WindSpeedGustMPH,Humidity,HourlyPrecipIn,Conditions,Clouds,dailyrainin,SoftwareType,DateUTC
2013-09-11 00:01:00,70.3,65.2,30.48,SE,135,57.0,0.0,84,0.00,,,0.00,VWS V13.01,2013-09-11 04:01:00,
2013-09-11 00:02:00,70.3,65.2,30.48,SE,135,57.0,0.0,84,0.00,,CLR,0.00,VWS V13.01,2013-09-11 04:02:00,
2013-09-11 00:04:00,70.3,65.1,30.47,SE,135,57.0,0.0,84,0.00,,CLR,0.00,VWS V13.01,2013-09-11 04:04:00,
2013-09-11 00:07:00,70.1,65.1,30.47,SE,135,57.0,0.0,84,0.00,,CLR,0.00,VWS V13.01,2013-09-11 04:07:00,
2013-09-11 00:12:00,69.9,64.8,30.47,SE,135,57.0,0.0,84,0.00,,CLR,0.00,VWS V13.01,2013-09-11 04:12:00,
2013-09-11 00:17:00,69.6,64.6,30.48,SE,135,57.0,0.0,84,0.00,,CLR,0.00,VWS V13.01,2013-09-11 04:17:00,
2013-09-11 00:22:00,69.6,64.6,30.48,SE,135,57.0,0.0,84,0.00,,CLR,0.00,VWS V13.01,2013-09-11 04:22:00,
2013-09-11 00:27:00,69.4,64.4,30.47,SE,135,57.0,0.0,84,0.00,,CLR,0.00,VWS V13.01,2013-09-11 04:27:00,
2013-09-11 00:32:00,69.4,64.2,30.47,SE,135,57.0,0.0,84,0.00,,,0.00,VWS V13.01,2013-09-11 04:32:00,
2013-09-11 00:37:00,69.0,64.4,30.47,SE,135,57.0,0.0,85,0.00,,,0.00,VWS V13.01,2013-09-11 04:37:00,
2013-09-11 00:42:00,68.9,64.3,30.47,SE,135,57.0,0.0,85,0.00,,,0.00,VWS V13.01,2013-09-11 04:42:00,
2013-09-11 00:47:00,68.7,64.2,30.47,SE,135,57.0,0.0,85,0.00,,,0.00,VWS V13.01,2013-09-11 04:47:00,
2013-09-11 00:52:00,68.7,64.0,30.47,SE,135,57.0,0.0,85,0.00,,,0.00,VWS V13.01,2013-09-11 04:52:00,
2013-09-11 00:57:00,68.5,63.8,30.47,SE,135,57.0,0.0,85,0.00,,,0.00,VWS V13.01,2013-09-11 04:57:00,
2013-09-11 01:02:00,68.5,63.8,30.46,SE,135,57.0,0.0,85,0.00,,,0.00,VWS V13.01,2013-09-11 05:02:00,
2013-09-11 01:07:00,68.3,63.6,30.47,SE,135,57.0,0.0,85,0.00,,,0.00,VWS V13.01,2013-09-11 05:07:00,
2013-09-11 01:12:00,68.3,63.4,30.47,SE,135,57.0,0.0,85,0.00,,,0.00,VWS V13.01,2013-09-11 05:12:00,
2013-09-11 01:17:00,68.3,63.4,30.46,SE,135,57.0,0.0,85,0.00,,,0.00,VWS V13.01,2013-09-11 05:17:00,
2013-09-11 01:22:00,68.1,63.8,30.46,SE,135,57.0,0.0,86,0.00,,,0.00,VWS V13.01,2013-09-11 05:22:00,
2013-09-11 01:27:00,68.0,63.7,30.46,SE,135,57.0,0.0,86,0.00,,,0.00,VWS V13.01,2013-09-11 05:27:00,
2013-09-11 01:32:00,67.8,63.5,30.46,SE,135,57.0,0.0,86,0.00,,,0.00,VWS V13.01,2013-09-11 05:32:00,
2013-09-11 01:37:00,67.8,63.5,30.46,SE,135,57.0,0.0,86,0.00,,,0.00,VWS V13.01,2013-09-11 05:37:00,
2013-09-11 01:42:00,67.8,63.5,30.46,SE,135,57.0,0.0,86,0.00,,,0.00,VWS V13.01,2013-09-11 05:42:00,
2013-09-11 01:47:00,67.8,63.3,30.46,SE,135,57.0,0.0,86,0.00,,,0.00,VWS V13.01,2013-09-11 05:47:00,
2013-09-11 01:52:00,67.6,63.3,30.46,SE,135,57.0,0.0,86,0.00,,,0.00,VWS V13.01,2013-09-11 05:52:00,
2013-09-11 01:57:00,67.6,63.3,30.46,SE,135,57.0,0.0,86,0.00,,,0.00,VWS V13.01,2013-09-11 05:57:00,
2013-09-11 02:02:00,67.4,62.9,30.46,SE,135,57.0,0.0,87,0.00,,,0.00,VWS V13.01,2013-09-11 06:02:00,
2013-09-11 02:07:00,67.4,62.9,30.46,SE,135,57.0,0.0,87,0.00,,,0.00,VWS V13.01,2013-09-11 06:07:00,
2013-09-11 02:12:00,67.2,63.2,30.46,SE,135,57.0,0.0,86,0.00,,,0.00,VWS V13.01,2013-09-11 06:12:00,
2013-09-11 02:17:00,67.2,63.2,30.46,SE,135,57.0,0.0,87,0.00,,,0.00,VWS V13.01,2013-09-11 06:17:00,
2013-09-11 02:22:00,67.2,63.2,30.45,SE,135,57.0,0.0,87,0.00,,,0.00,VWS V13.01,2013-09-11 06:22:00,
2013-09-11 02:27:00,67.2,63.2,30.45,SE,135,57.0,0.0,87,0.00,,,0.00,VWS V13.01,2013-09-11 06:27:00,
2013-09-11 02:32:00,67.2,63.1,30.45,SE,135,57.0,0.0,87,0.00,,,0.00,VWS V13.01,2013-09-11 06:32:00,
2013-09-11 02:37:00,67.1,63.1,30.45,SE,135,57.0,0.0,87,0.00,,,0.00,VWS V13.01,2013-09-11 06:37:00,
2013-09-11 02:42:00,67.1,63.1,30.45,SE,135,57.0,0.0,87,0.00,,,0.00,VWS V13.01,2013-09-11 06:42:00,
2013-09-11 02:48:00,66.9,62.9,30.45,SE,135,57.0,0.0,87,0.00,,,0.00,VWS V13.01,2013-09-11 06:48:00,
2013-09-11 02:53:00,66.9,62.9,30.45,North,0,57.0,0.0,87,0.00,,,0.00,VWS V13.01,2013-09-11 06:53:00,
2013-09-11 02:58:00,66.9,62.9,30.45,SE,135,57.0,0.0,87,0.00,,,0.00,VWS V13.01,2013-09-11 06:58:00,
2013-09-11 03:03:00,66.7,62.7,30.45,SE,135,57.0,0.0,87,0.00,,,0.00,VWS V13.01,2013-09-11 07:03:00,
2013-09-11 03:08:00,66.7,62.7,30.44,SE,135,57.0,0.0,87,0.00,,,0.00,VWS V13.01,2013-09-11 07:08:00,
2013-09-11 03:13:00,66.7,62.7,30.44,SE,135,57.0,0.0,87,0.00,,,0.00,VWS V13.01,2013-09-11 07:13:00,
2013-09-11 03:18:00,66.5,62.5,30.44,SE,135,57.0,0.0,87,0.00,,,0.00,VWS V13.01,2013-09-11 07:18:00,
2013-09-11 03:23:00,66.3,62.3,30.44,SE,135,57.0,0.0,88,0.00,,,0.00,VWS V13.01,2013-09-11 07:23:00,
2013-09-11 03:28:00,66.3,62.6,30.44,SE,135,57.0,0.0,87,0.00,,,0.00,VWS V13.01,2013-09-11 07:28:00,
2013-09-11 03:33:00,66.3,62.2,30.44,SE,135,57.0,0.0,88,0.00,,,0.00,VWS V13.01,2013-09-11 07:33:00,
2013-09-11 03:38:00,66.3,62.2,30.44,SE,135,57.0,0.0,88,0.00,,,0.00,VWS V13.01,2013-09-11 07:38:00,
2013-09-11 03:43:00,66.0,62.2,30.44,SE,135,57.0,0.0,87,0.00,,,0.00,VWS V13.01,2013-09-11 07:43:00,
2013-09-11 03:48:00,66.0,62.0,30.44,SE,135,57.0,0.0,87,0.00,,,0.00,VWS V13.01,2013-09-11 07:48:00,
2013-09-11 03:53:00,66.0,62.0,30.44,SE,135,57.0,0.0,87,0.00,,,0.00,VWS V13.01,2013-09-11 07:53:00,
2013-09-11 03:58:00,66.0,62.0,30.44,SE,135,57.0,0.0,87,0.00,,,0.00,VWS V13.01,2013-09-11 07:58:00,
2013-09-11 04:03:00,66.0,62.0,30.44,SE,135,57.0,0.0,87,0.00,,,0.00,VWS V13.01,2013-09-11 08:03:00,
2013-09-11 04:08:00,66.0,62.0,30.43,SE,135,57.0,0.0,87,0.00,,,0.00,VWS V13.01,2013-09-11 08:08:00,
2013-09-11 04:13:00,66.0,62.0,30.43,SE,135,57.0,0.0,87,0.00,,,0.00,VWS V13.01,2013-09-11 08:13:00,
2013-09-11 04:19:00,65.8,61.8,30.44,SE,135,57.0,0.0,87,0.00,,,0.00,VWS V13.01,2013-09-11 08:19:00,
2013-09-11 04:23:00,65.8,62.0,30.44,SE,135,57.0,0.0,87,0.00,,,0.00,VWS V13.01,2013-09-11 08:23:00,
2013-09-11 04:29:00,65.6,61.8,30.44,SE,135,57.0,0.0,88,0.00,,,0.00,VWS V13.01,2013-09-11 08:29:00,
2013-09-11 04:34:00,65.4,61.8,30.44,SE,135,57.0,0.0,88,0.00,,,0.00,VWS V13.01,2013-09-11 08:34:00,
2013-09-11 04:39:00,65.4,61.8,30.44,SE,135,57.0,0.0,88,0.00,,,0.00,VWS V13.01,2013-09-11 08:39:00,
2013-09-11 04:44:00,65.4,61.7,30.44,SE,135,57.0,0.0,88,0.00,,,0.00,VWS V13.01,2013-09-11 08:44:00,
2013-09-11 04:49:00,65.3,61.7,30.44,SE,135,57.0,0.0,88,0.00,,,0.00,VWS V13.01,2013-09-11 08:49:00,
2013-09-11 04:54:00,65.3,61.7,30.44,SE,135,57.0,0.0,88,0.00,,,0.00,VWS V13.01,2013-09-11 08:54:00,
2013-09-11 04:59:00,65.3,61.7,30.44,SE,135,57.0,0.0,88,0.00,,,0.00,VWS V13.01,2013-09-11 08:59:00,
2013-09-11 05:04:00,65.3,61.7,30.44,SE,135,57.0,0.0,88,0.00,,,0.00,VWS V13.01,2013-09-11 09:04:00,
2013-09-11 05:09:00,65.3,61.5,30.44,SE,135,57.0,0.0,88,0.00,,,0.00,VWS V13.01,2013-09-11 09:09:00,
2013-09-11 05:14:00,65.3,61.5,30.45,SE,135,57.0,0.0,88,0.00,,,0.00,VWS V13.01,2013-09-11 09:14:00,
2013-09-11 05:19:00,65.3,61.5,30.45,SE,135,57.0,0.0,88,0.00,,,0.00,VWS V13.01,2013-09-11 09:19:00,
2013-09-11 05:24:00,65.3,61.5,30.45,SE,135,57.0,0.0,88,0.00,,,0.00,VWS V13.01,2013-09-11 09:24:00,
2013-09-11 05:29:00,65.1,61.5,30.45,SE,135,57.0,0.0,88,0.00,,,0.00,VWS V13.01,2013-09-11 09:29:00,
2013-09-11 05:34:00,65.1,61.5,30.45,SE,135,57.0,0.0,88,0.00,,,0.00,VWS V13.01,2013-09-11 09:34:00,
2013-09-11 05:39:00,65.1,61.3,30.45,SE,135,57.0,0.0,88,0.00,,,0.00,VWS V13.01,2013-09-11 09:39:00,
2013-09-11 05:44:00,64.9,61.3,30.45,SE,135,57.0,0.0,88,0.00,,,0.00,VWS V13.01,2013-09-11 09:44:00,
2013-09-11 05:49:00,64.9,61.3,30.45,SE,135,57.0,0.0,88,0.00,,,0.00,VWS V13.01,2013-09-11 09:49:00,
2013-09-11 05:54:00,64.9,61.1,30.46,SE,135,57.0,0.0,88,0.00,,,0.00,VWS V13.01,2013-09-11 09:54:00,
2013-09-11 05:59:00,64.7,61.1,30.45,SE,135,57.0,0.0,88,0.00,,,0.00,VWS V13.01,2013-09-11 09:59:00,
2013-09-11 06:04:00,64.5,60.9,30.45,SE,135,57.0,0.0,88,0.00,,,0.00,VWS V13.01,2013-09-11 10:04:00,
2013-09-11 06:09:00,64.5,60.9,30.46,SE,135,57.0,0.0,88,0.00,,,0.00,VWS V13.01,2013-09-11 10:09:00,
2013-09-11 06:14:00,64.5,60.9,30.45,SE,135,57.0,0.0,88,0.00,,,0.00,VWS V13.01,2013-09-11 10:14:00,
2013-09-11 06:19:00,64.5,60.9,30.46,SE,135,57.0,0.0,88,0.00,,,0.00,VWS V13.01,2013-09-11 10:19:00,
2013-09-11 06:24:00,64.4,60.9,30.46,SE,135,57.0,0.0,88,0.00,,,0.00,VWS V13.01,2013-09-11 10:24:00,
2013-09-11 06:29:00,64.4,60.6,30.46,SE,135,57.0,0.0,88,0.00,,,0.00,VWS V13.01,2013-09-11 10:29:00,
2013-09-11 06:34:00,64.2,60.6,30.46,SE,135,57.0,0.0,88,0.00,,,0.00,VWS V13.01,2013-09-11 10:34:00,
2013-09-11 06:39:00,64.2,60.6,30.46,SE,135,57.0,0.0,89,0.00,,,0.00,VWS V13.01,2013-09-11 10:39:00,
2013-09-11 06:44:00,64.2,60.7,30.46,SE,135,57.0,0.0,89,0.00,,,0.00,VWS V13.01,2013-09-11 10:44:00,
2013-09-11 06:49:00,64.0,60.7,30.46,SE,135,57.0,0.0,89,0.00,,,0.00,VWS V13.01,2013-09-11 10:49:00,
2013-09-11 06:54:00,64.0,60.7,30.46,SE,135,57.0,0.0,89,0.00,,,0.00,VWS V13.01,2013-09-11 10:54:00,
2013-09-11 06:59:00,64.0,60.7,30.46,SE,135,57.0,0.0,89,0.00,,,0.00,VWS V13.01,2013-09-11 10:59:00,
2013-09-11 07:04:00,63.8,60.5,30.47,SE,135,57.0,0.0,89,0.00,,,0.00,VWS V13.01,2013-09-11 11:04:00,
2013-09-11 07:09:00,63.8,60.3,30.46,SE,135,57.0,0.0,89,0.00,,,0.00,VWS V13.01,2013-09-11 11:09:00,
2013-09-11 07:14:00,63.8,60.3,30.47,SE,135,57.0,0.0,89,0.00,,,0.00,VWS V13.01,2013-09-11 11:14:00,
2013-09-11 07:19:00,63.6,60.3,30.47,SE,135,57.0,0.0,89,0.00,,,0.00,VWS V13.01,2013-09-11 11:19:00,
2013-09-11 07:24:00,63.6,60.3,30.47,SE,135,57.0,0.0,89,0.00,,,0.00,VWS V13.01,2013-09-11 11:24:00,
2013-09-11 07:29:00,63.6,60.3,30.47,SE,135,57.0,0.0,89,0.00,,,0.00,VWS V13.01,2013-09-11 11:29:00,
2013-09-11 07:34:00,63.6,60.3,30.47,SE,135,57.0,0.0,89,0.00,,,0.00,VWS V13.01,2013-09-11 11:34:00,
2013-09-11 07:39:00,63.6,60.3,30.47,SE,135,57.0,0.0,89,0.00,,,0.00,VWS V13.01,2013-09-11 11:39:00,
2013-09-11 07:44:00,63.6,60.7,30.47,SE,135,57.0,0.0,89,0.00,,,0.00,VWS V13.01,2013-09-11 11:44:00,
2013-09-11 07:49:00,64.2,60.7,30.47,SE,135,57.0,0.0,89,0.00,,,0.00,VWS V13.01,2013-09-11 11:49:00,
2013-09-11 07:54:00,64.2,60.9,30.47,SE,135,57.0,0.0,89,0.00,,,0.00,VWS V13.01,2013-09-11 11:54:00,
2013-09-11 07:59:00,64.4,61.2,30.47,SE,135,57.0,0.0,89,0.00,,,0.00,VWS V13.01,2013-09-11 11:59:00,
2013-09-11 08:04:00,64.5,61.4,30.47,SE,135,57.0,0.0,89,0.00,,,0.00,VWS V13.01,2013-09-11 12:04:00,
2013-09-11 08:09:00,64.9,61.4,30.47,SE,135,57.0,0.0,89,0.00,,,0.00,VWS V13.01,2013-09-11 12:09:00,
2013-09-11 08:14:00,65.1,61.8,30.47,SE,135,57.0,0.0,89,0.00,,,0.00,VWS V13.01,2013-09-11 12:14:00,
2013-09-11 08:19:00,65.1,62.1,30.47,SE,135,57.0,0.0,89,0.00,,,0.00,VWS V13.01,2013-09-11 12:19:00,
2013-09-11 08:24:00,65.1,62.1,30.47,SE,135,57.0,0.0,89,0.00,,,0.00,VWS V13.01,2013-09-11 12:24:00,
2013-09-11 08:29:00,65.6,62.5,30.47,SE,135,57.0,0.0,89,0.00,,,0.00,VWS V13.01,2013-09-11 12:29:00,
2013-09-11 08:34:00,65.8,62.7,30.47,SE,135,57.0,0.0,89,0.00,,,0.00,VWS V13.01,2013-09-11 12:34:00,
2013-09-11 08:39:00,65.8,63.0,30.48,SE,135,57.0,0.0,89,0.00,,,0.00,VWS V13.01,2013-09-11 12:39:00,
2013-09-11 08:44:00,66.3,63.2,30.48,SE,135,57.0,0.0,89,0.00,,,0.00,VWS V13.01,2013-09-11 12:44:00,
2013-09-11 08:49:00,66.7,63.4,30.48,SE,135,57.0,0.0,89,0.00,,,0.00,VWS V13.01,2013-09-11 12:49:00,
2013-09-11 08:54:00,66.9,63.6,30.48,SE,135,57.0,0.0,89,0.00,,,0.00,VWS V13.01,2013-09-11 12:54:00,
2013-09-11 08:59:00,66.9,63.8,30.47,SE,135,57.0,0.0,89,0.00,,,0.00,VWS V13.01,2013-09-11 12:59:00,
2013-09-11 09:04:00,67.2,64.2,30.47,SE,135,57.0,0.0,89,0.00,,,0.00,VWS V13.01,2013-09-11 13:04:00,
2013-09-11 09:09:00,67.6,64.4,30.48,SE,135,57.0,0.0,89,0.00,,,0.00,VWS V13.01,2013-09-11 13:09:00,
2013-09-11 09:14:00,67.8,64.7,30.47,SE,135,57.0,0.0,89,0.00,,,0.00,VWS V13.01,2013-09-11 13:14:00,
2013-09-11 09:19:00,68.3,65.1,30.47,SE,135,57.0,0.0,89,0.00,,,0.00,VWS V13.01,2013-09-11 13:19:00,
2013-09-11 09:24:00,68.7,65.6,30.48,SE,135,57.0,0.0,89,0.00,,,0.00,VWS V13.01,2013-09-11 13:24:00,
2013-09-11 09:29:00,69.0,66.0,30.48,SE,135,57.0,0.0,89,0.00,,,0.00,VWS V13.01,2013-09-11 13:29:00,
2013-09-11 09:34:00,69.4,66.2,30.48,West,270,1.1,0.0,89,0.00,,,0.00,VWS V13.01,2013-09-11 13:34:00,
2013-09-11 09:39:00,69.6,66.4,30.48,WSW,248,2.9,0.0,89,0.00,,,0.00,VWS V13.01,2013-09-11 13:39:00,
2013-09-11 09:44:00,69.8,66.5,30.48,WNW,292,0.4,0.0,89,0.00,,,0.00,VWS V13.01,2013-09-11 13:44:00,
2013-09-11 09:49:00,69.6,66.4,30.48,WSW,248,0.4,0.0,89,0.00,,,0.00,VWS V13.01,2013-09-11 13:49:00,
2013-09-11 09:54:00,69.8,66.2,30.48,WSW,248,0.4,0.0,89,0.00,,,0.00,VWS V13.01,2013-09-11 13:54:00,
2013-09-11 09:59:00,69.8,66.2,30.48,WSW,248,0.6,0.0,89,0.00,,,0.00,VWS V13.01,2013-09-11 13:59:00,
2013-09-11 10:04:00,69.6,66.5,30.48,WSW,248,0.6,0.0,89,0.00,,,0.00,VWS V13.01,2013-09-11 14:04:00,
2013-09-11 10:09:00,69.9,66.9,30.48,WSW,248,57.0,0.0,89,0.00,,,0.00,VWS V13.01,2013-09-11 14:09:00,
2013-09-11 10:14:00,70.3,67.0,30.47,WSW,248,0.8,0.0,89,0.00,,,0.00,VWS V13.01,2013-09-11 14:14:00,
2013-09-11 10:19:00,70.7,67.4,30.47,SW,225,0.8,0.0,88,0.00,,,0.00,VWS V13.01,2013-09-11 14:19:00,
2013-09-11 10:24:00,71.0,67.5,30.47,WNW,292,2.2,0.0,88,0.00,,,0.00,VWS V13.01,2013-09-11 14:24:00,
2013-09-11 10:29:00,71.4,67.9,30.47,WSW,248,1.5,0.0,88,0.00,,,0.00,VWS V13.01,2013-09-11 14:29:00,
2013-09-11 10:34:00,71.7,68.2,30.48,WSW,248,2.4,0.0,88,0.00,,,0.00,VWS V13.01,2013-09-11 14:34:00,
2013-09-11 10:39:00,71.9,68.3,30.47,WNW,292,4.2,0.0,88,0.00,,,0.00,VWS V13.01,2013-09-11 14:39:00,
2013-09-11 10:44:00,72.3,68.2,30.48,NW,315,4.6,0.0,88,0.00,,,0.00,VWS V13.01,2013-09-11 14:44:00,
2013-09-11 10:49:00,72.1,68.2,30.47,West,270,2.0,0.0,87,0.00,,,0.00,VWS V13.01,2013-09-11 14:49:00,
2013-09-11 10:54:00,72.3,68.2,30.47,West,270,0.6,0.0,87,0.00,,,0.00,VWS V13.01,2013-09-11 14:54:00,
2013-09-11 10:59:00,72.5,68.7,30.46,NW,315,0.6,0.0,87,0.00,,,0.00,VWS V13.01,2013-09-11 14:59:00,
2013-09-11 11:04:00,73.0,68.8,30.47,WSW,248,0.8,0.0,87,0.00,,,0.00,VWS V13.01,2013-09-11 15:04:00,
2013-09-11 11:09:00,73.0,69.4,30.46,West,270,0.8,0.0,87,0.00,,,0.00,VWS V13.01,2013-09-11 15:09:00,
2013-09-11 11:14:00,73.9,69.9,30.47,West,270,0.6,0.0,86,0.00,,,0.00,VWS V13.01,2013-09-11 15:14:00,
2013-09-11 11:19:00,74.4,70.2,30.47,NW,315,0.6,0.0,85,0.00,,,0.00,VWS V13.01,2013-09-11 15:19:00,
2013-09-11 11:24:00,74.4,70.5,30.47,West,270,57.0,0.0,85,0.00,,,0.00,VWS V13.01,2013-09-11 15:24:00,
2013-09-11 11:29:00,75.7,71.0,30.46,West,270,1.5,0.0,84,0.00,,,0.00,VWS V13.01,2013-09-11 15:29:00,
2013-09-11 11:34:00,76.4,71.2,30.46,West,270,0.4,0.0,84,0.00,,,0.00,VWS V13.01,2013-09-11 15:34:00,
2013-09-11 11:39:00,76.8,71.6,30.46,WSW,248,4.4,0.0,83,0.00,,,0.00,VWS V13.01,2013-09-11 15:39:00,
2013-09-11 11:44:00,77.7,71.4,30.46,WSW,248,2.0,0.0,82,0.00,,,0.00,VWS V13.01,2013-09-11 15:44:00,
2013-09-11 11:49:00,77.9,71.7,30.46,West,270,2.6,0.0,81,0.00,,,0.00,VWS V13.01,2013-09-11 15:49:00,
2013-09-11 11:54:00,78.0,71.3,30.46,West,270,5.5,0.0,80,0.00,,,0.00,VWS V13.01,2013-09-11 15:54:00,
2013-09-11 11:59:00,78.0,70.8,30.45,WNW,292,1.3,0.0,80,0.00,,,0.00,VWS V13.01,2013-09-11 15:59:00,
2013-09-11 12:04:00,77.3,70.7,30.46,WSW,248,0.8,0.0,80,0.00,,CLR,0.00,VWS V13.01,2013-09-11 16:04:00,
2013-09-11 12:09:00,77.5,70.7,30.45,WSW,248,2.4,0.0,80,0.00,,CLR,0.00,VWS V13.01,2013-09-11 16:09:00,
2013-09-11 12:14:00,77.9,71.3,30.45,WNW,292,2.4,0.0,80,0.00,,CLR,0.00,VWS V13.01,2013-09-11 16:14:00,
2013-09-11 12:19:00,78.4,72.2,30.45,East,90,2.4,0.0,80,0.00,,CLR,0.00,VWS V13.01,2013-09-11 16:19:00,
2013-09-11 12:24:00,79.1,72.7,30.44,SW,225,1.7,0.0,80,0.00,,CLR,0.00,VWS V13.01,2013-09-11 16:24:00,
2013-09-11 12:29:00,80.2,72.2,30.44,SSW,202,1.5,0.0,78,0.00,,CLR,0.00,VWS V13.01,2013-09-11 16:29:00,
2013-09-11 12:34:00,80.4,72.4,30.44,WSW,248,4.2,0.0,76,0.00,,CLR,0.00,VWS V13.01,2013-09-11 16:34:00,
2013-09-11 12:39:00,80.7,72.6,30.44,NW,315,0.4,0.0,76,0.00,,CLR,0.00,VWS V13.01,2013-09-11 16:39:00,
2013-09-11 12:44:00,81.1,72.0,30.44,WSW,248,4.0,0.0,75,0.00,,CLR,0.00,VWS V13.01,2013-09-11 16:44:00,
2013-09-11 12:49:00,81.1,72.2,30.44,WSW,248,4.2,0.0,74,0.00,,CLR,0.00,VWS V13.01,2013-09-11 16:49:00,
2013-09-11 12:54:00,81.3,71.8,30.44,West,270,3.8,0.0,74,0.00,,CLR,0.00,VWS V13.01,2013-09-11 16:54:00,
2013-09-11 12:59:00,81.3,72.5,30.44,West,270,4.6,0.0,73,0.00,,CLR,0.00,VWS V13.01,2013-09-11 16:59:00,
2013-09-11 13:04:00,81.6,72.5,30.43,West,270,1.3,0.0,73,0.00,,SCT033,0.00,VWS V13.01,2013-09-11 17:04:00,
2013-09-11 13:09:00,82.0,72.3,30.43,WNW,292,3.1,0.0,73,0.00,,SCT033,0.00,VWS V13.01,2013-09-11 17:09:00,
2013-09-11 13:14:00,82.2,71.9,30.43,SSW,202,0.6,0.0,72,0.00,,SCT033,0.00,VWS V13.01,2013-09-11 17:14:00,
2013-09-11 13:19:00,82.0,71.7,30.42,West,270,2.4,0.0,71,0.00,,SCT033,0.00,VWS V13.01,2013-09-11 17:19:00,
2013-09-11 13:24:00,82.0,71.7,30.42,SSW,202,0.6,0.0,71,0.00,,SCT033,0.00,VWS V13.01,2013-09-11 17:24:00,
2013-09-11 13:29:00,82.0,71.3,30.41,WSW,248,2.6,0.0,71,0.00,,SCT033,0.00,VWS V13.01,2013-09-11 17:29:00,
2013-09-11 13:34:00,81.5,70.8,30.41,WSW,248,3.8,0.0,71,0.00,,SCT033,0.00,VWS V13.01,2013-09-11 17:34:00,
2013-09-11 13:39:00,81.1,70.1,30.41,NNW,338,2.9,0.0,71,0.00,,SCT033,0.00,VWS V13.01,2013-09-11 17:39:00,
2013-09-11 13:44:00,79.7,70.6,30.41,WNW,292,4.4,0.0,72,0.00,,BKN049,0.00,VWS V13.01,2013-09-11 17:44:00,
2013-09-11 13:49:00,79.5,69.9,30.41,NW,315,6.9,0.0,72,0.00,,BKN049,0.00,VWS V13.01,2013-09-11 17:49:00,
2013-09-11 13:54:00,79.5,70.1,30.41,West,270,0.6,0.0,72,0.00,,BKN049,0.00,VWS V13.01,2013-09-11 17:54:00,
2013-09-11 13:59:00,79.1,69.7,30.41,West,270,3.5,0.0,74,0.00,,BKN049,0.00,VWS V13.01,2013-09-11 17:59:00,
2013-09-11 14:04:00,79.5,69.7,30.41,WSW,248,6.7,0.0,72,0.00,,BKN120,0.00,VWS V13.01,2013-09-11 18:04:00,
2013-09-11 14:09:00,79.5,70.0,30.41,WSW,248,1.3,0.0,72,0.00,,BKN120,0.00,VWS V13.01,2013-09-11 18:09:00,
2013-09-11 14:14:00,79.8,69.6,30.41,WSW,248,1.3,0.0,72,0.00,,BKN120,0.00,VWS V13.01,2013-09-11 18:14:00,
2013-09-11 14:19:00,80.0,69.9,30.41,SSW,202,0.8,0.0,71,0.00,,BKN120,0.00,VWS V13.01,2013-09-11 18:19:00,
2013-09-11 14:24:00,80.2,69.9,30.41,West,270,3.5,0.0,71,0.00,,BKN120,0.00,VWS V13.01,2013-09-11 18:24:00,
2013-09-11 14:29:00,80.2,70.1,30.41,WSW,248,1.7,0.0,71,0.00,,BKN120,0.00,VWS V13.01,2013-09-11 18:29:00,
2013-09-11 14:34:00,80.4,70.4,30.40,WSW,248,6.4,0.0,71,0.00,,CLR,0.00,VWS V13.01,2013-09-11 18:34:00,
2013-09-11 14:39:00,80.7,70.8,30.40,South,180,3.8,0.0,70,0.00,,CLR,0.00,VWS V13.01,2013-09-11 18:39:00,
2013-09-11 14:44:00,81.8,71.0,30.40,WNW,292,2.0,0.0,70,0.00,,CLR,0.00,VWS V13.01,2013-09-11 18:44:00,
2013-09-11 14:49:00,82.0,70.8,30.39,West,270,2.2,0.0,69,0.00,,CLR,0.00,VWS V13.01,2013-09-11 18:49:00,
2013-09-11 14:54:00,82.2,71.3,30.40,North,0,4.0,0.0,69,0.00,,CLR,0.00,VWS V13.01,2013-09-11 18:54:00,
2013-09-11 14:59:00,82.2,70.4,30.39,West,270,5.3,0.0,69,0.00,,CLR,0.00,VWS V13.01,2013-09-11 18:59:00,
2013-09-11 15:04:00,82.7,69.8,30.39,NNW,338,0.6,0.0,65,0.00,,CLR,0.00,VWS V13.01,2013-09-11 19:04:00,
2013-09-11 15:09:00,82.9,70.4,30.39,NNW,338,1.1,0.0,65,0.00,,CLR,0.00,VWS V13.01,2013-09-11 19:09:00,
2013-09-11 15:14:00,82.9,69.9,30.39,WNW,292,57.0,0.0,65,0.00,,CLR,0.00,VWS V13.01,2013-09-11 19:14:00,
2013-09-11 15:19:00,82.9,69.7,30.39,West,270,57.0,0.0,64,0.00,,CLR,0.00,VWS V13.01,2013-09-11 19:19:00,
2013-09-11 15:24:00,83.1,69.4,30.39,WSW,248,0.8,0.0,64,0.00,,CLR,0.00,VWS V13.01,2013-09-11 19:24:00,
2013-09-11 15:29:00,83.3,69.0,30.39,North,0,4.2,0.0,63,0.00,,CLR,0.00,VWS V13.01,2013-09-11 19:29:00,
2013-09-11 15:34:00,83.6,69.2,30.39,NW,315,4.6,0.0,62,0.00,,CLR,0.00,VWS V13.01,2013-09-11 19:34:00,
2013-09-11 15:39:00,83.4,69.0,30.39,SW,225,4.6,0.0,62,0.00,,CLR,0.00,VWS V13.01,2013-09-11 19:39:00,
2013-09-11 15:44:00,83.4,68.6,30.39,NW,315,3.1,0.0,62,0.00,,CLR,0.00,VWS V13.01,2013-09-11 19:44:00,
2013-09-11 15:49:00,83.4,68.1,30.39,NW,315,2.0,0.0,61,0.00,,CLR,0.00,VWS V13.01,2013-09-11 19:49:00,
2013-09-11 15:54:00,83.4,67.8,30.38,WSW,248,57.0,0.0,60,0.00,,CLR,0.00,VWS V13.01,2013-09-11 19:54:00,
2013-09-11 15:59:00,82.9,68.8,30.38,WNW,292,1.3,0.0,61,0.00,,CLR,0.00,VWS V13.01,2013-09-11 19:59:00,
2013-09-11 16:04:00,82.7,69.6,30.38,WSW,248,4.0,0.0,64,0.00,,SCT031,0.00,VWS V13.01,2013-09-11 20:04:00,
2013-09-11 16:09:00,82.2,70.2,30.38,NW,315,0.6,0.0,65,0.00,,SCT031,0.00,VWS V13.01,2013-09-11 20:09:00,
2013-09-11 16:14:00,82.2,70.4,30.38,WNW,292,2.0,0.0,67,0.00,,SCT031,0.00,VWS V13.01,2013-09-11 20:14:00,
2013-09-11 16:19:00,82.2,70.2,30.38,WSW,248,2.9,0.0,68,0.00,,SCT031,0.00,VWS V13.01,2013-09-11 20:19:00,
2013-09-11 16:24:00,82.2,70.2,30.38,WSW,248,7.3,0.0,68,0.00,,SCT031,0.00,VWS V13.01,2013-09-11 20:24:00,
2013-09-11 16:29:00,82.0,69.5,30.38,West,270,5.3,0.0,66,0.00,,SCT031,0.00,VWS V13.01,2013-09-11 20:29:00,
2013-09-11 16:34:00,82.0,70.0,30.38,West,270,3.5,0.0,66,0.00,,SCT050,0.00,VWS V13.01,2013-09-11 20:34:00,
2013-09-11 16:39:00,82.0,69.5,30.37,WSW,248,0.8,0.0,66,0.00,,SCT050,0.00,VWS V13.01,2013-09-11 20:39:00,
2013-09-11 16:44:00,81.8,69.6,30.37,NW,315,2.4,0.0,67,0.00,,SCT050,0.00,VWS V13.01,2013-09-11 20:44:00,
2013-09-11 16:49:00,81.6,70.4,30.37,NW,315,4.6,0.0,67,0.00,,SCT050,0.00,VWS V13.01,2013-09-11 20:49:00,
2013-09-11 16:54:00,81.6,70.6,30.37,NNE,22,3.1,0.0,67,0.00,,SCT050,0.00,VWS V13.01,2013-09-11 20:54:00,
2013-09-11 16:59:00,82.2,70.6,30.36,West,270,3.1,0.0,68,0.00,,SCT050,0.00,VWS V13.01,2013-09-11 20:59:00,
2013-09-11 17:04:00,82.2,71.0,30.36,ESE,112,3.1,0.0,68,0.00,,CLR,0.00,VWS V13.01,2013-09-11 21:04:00,
2013-09-11 17:09:00,82.2,70.6,30.36,WNW,292,3.8,0.0,69,0.00,,CLR,0.00,VWS V13.01,2013-09-11 21:09:00,
2013-09-11 17:14:00,82.2,70.4,30.36,NNW,338,3.8,0.0,69,0.00,,CLR,0.00,VWS V13.01,2013-09-11 21:14:00,
2013-09-11 17:19:00,81.5,70.4,30.37,West,270,3.8,0.0,69,0.00,,CLR,0.00,VWS V13.01,2013-09-11 21:19:00,
2013-09-11 17:24:00,81.3,69.8,30.36,NW,315,57.0,0.0,69,0.00,,CLR,0.00,VWS V13.01,2013-09-11 21:24:00,
2013-09-11 17:29:00,80.9,69.3,30.37,WNW,292,0.8,0.0,69,0.00,,CLR,0.00,VWS V13.01,2013-09-11 21:29:00,
2013-09-11 17:34:00,80.4,69.5,30.37,NW,315,3.5,0.0,69,0.00,,CLR,0.00,VWS V13.01,2013-09-11 21:34:00,
2013-09-11 17:39:00,79.8,69.3,30.37,NNE,22,3.5,0.0,70,0.00,,CLR,0.00,VWS V13.01,2013-09-11 21:39:00,
2013-09-11 17:44:00,79.3,68.7,30.37,ENE,68,3.5,0.0,71,0.00,,CLR,0.00,VWS V13.01,2013-09-11 21:44:00,
2013-09-11 17:49:00,78.9,68.8,30.37,NNW,338,1.1,0.0,71,0.00,,CLR,0.00,VWS V13.01,2013-09-11 21:49:00,
2013-09-11 17:54:00,78.9,68.2,30.37,NNE,22,3.5,0.0,71,0.00,,CLR,0.00,VWS V13.01,2013-09-11 21:54:00,
2013-09-11 17:59:00,78.0,68.6,30.37,NNE,22,3.5,0.0,73,0.00,,CLR,0.00,VWS V13.01,2013-09-11 21:59:00,
2013-09-11 18:04:00,77.9,68.4,30.37,West,270,3.5,0.0,73,0.00,,CLR,0.00,VWS V13.01,2013-09-11 22:04:00,
2013-09-11 18:09:00,77.5,68.4,30.37,North,0,3.5,0.0,73,0.00,,CLR,0.00,VWS V13.01,2013-09-11 22:09:00,
2013-09-11 18:14:00,77.0,68.2,30.37,NW,315,0.6,0.0,74,0.00,,CLR,0.00,VWS V13.01,2013-09-11 22:14:00,
2013-09-11 18:19:00,76.8,68.1,30.37,NE,45,0.6,0.0,75,0.00,,CLR,0.00,VWS V13.01,2013-09-11 22:19:00,
2013-09-11 18:24:00,77.0,68.3,30.37,NE,45,0.6,0.0,75,0.00,,CLR,0.00,VWS V13.01,2013-09-11 22:24:00,
2013-09-11 18:29:00,77.1,68.5,30.37,NE,45,57.0,0.0,75,0.00,,CLR,0.00,VWS V13.01,2013-09-11 22:29:00,
2013-09-11 18:34:00,77.0,68.6,30.37,NE,45,57.0,0.0,75,0.00,,CLR,0.00,VWS V13.01,2013-09-11 22:34:00,
2013-09-11 18:39:00,77.1,68.5,30.37,NE,45,57.0,0.0,75,0.00,,CLR,0.00,VWS V13.01,2013-09-11 22:39:00,
2013-09-11 18:44:00,77.0,68.5,30.38,NE,45,57.0,0.0,75,0.00,,CLR,0.00,VWS V13.01,2013-09-11 22:44:00,
2013-09-11 18:49:00,76.8,68.3,30.37,NE,45,57.0,0.0,75,0.00,,CLR,0.00,VWS V13.01,2013-09-11 22:49:00,
2013-09-11 18:54:00,76.8,68.7,30.37,NE,45,57.0,0.0,75,0.00,,CLR,0.00,VWS V13.01,2013-09-11 22:54:00,
2013-09-11 18:59:00,76.8,68.7,30.37,NE,45,57.0,0.0,76,0.00,,CLR,0.00,VWS V13.01,2013-09-11 22:59:00,
2013-09-11 19:04:00,76.6,68.3,30.37,NE,45,57.0,0.0,76,0.00,,CLR,0.00,VWS V13.01,2013-09-11 23:04:00,
2013-09-11 19:09:00,76.6,68.1,30.37,NE,45,57.0,0.0,76,0.00,,CLR,0.00,VWS V13.01,2013-09-11 23:09:00,
2013-09-11 19:14:00,76.2,67.8,30.37,NE,45,57.0,0.0,76,0.00,,CLR,0.00,VWS V13.01,2013-09-11 23:14:00,
2013-09-11 19:19:00,75.5,67.8,30.37,NE,45,57.0,0.0,76,0.00,,CLR,0.00,VWS V13.01,2013-09-11 23:19:00,
2013-09-11 19:25:00,75.3,67.4,30.37,NE,45,57.0,0.0,77,0.00,,CLR,0.00,VWS V13.01,2013-09-11 23:25:00,
2013-09-11 19:30:00,75.0,67.3,30.37,NE,45,57.0,0.0,77,0.00,,CLR,0.00,VWS V13.01,2013-09-11 23:30:00,
2013-09-11 19:35:00,75.0,67.3,30.38,NE,45,57.0,0.0,77,0.00,,CLR,0.00,VWS V13.01,2013-09-11 23:35:00,
2013-09-11 19:40:00,74.6,67.0,30.37,NE,45,57.0,0.0,78,0.00,,CLR,0.00,VWS V13.01,2013-09-11 23:40:00,
2013-09-11 19:45:00,74.6,66.6,30.38,NE,45,57.0,0.0,78,0.00,,CLR,0.00,VWS V13.01,2013-09-11 23:45:00,
2013-09-11 19:50:00,73.9,66.2,30.37,NE,45,57.0,0.0,78,0.00,,CLR,0.00,VWS V13.01,2013-09-11 23:50:00,
2013-09-11 19:55:00,73.5,66.3,30.37,NE,45,57.0,0.0,78,0.00,,CLR,0.00,VWS V13.01,2013-09-11 23:55:00,
2013-09-11 20:00:00,73.2,66.1,30.37,NE,45,57.0,0.0,79,0.00,,CLR,0.00,VWS V13.01,2013-09-12 00:00:00,
2013-09-11 20:05:00,73.0,65.9,30.37,NE,45,57.0,0.0,79,0.00,,CLR,0.00,VWS V13.01,2013-09-12 00:05:00,
2013-09-11 20:10:00,72.8,65.6,30.37,NE,45,57.0,0.0,79,0.00,,CLR,0.00,VWS V13.01,2013-09-12 00:10:00,
2013-09-11 20:15:00,72.3,65.6,30.37,NE,45,57.0,0.0,80,0.00,,CLR,0.00,VWS V13.01,2013-09-12 00:15:00,
2013-09-11 20:20:00,72.3,65.6,30.37,NE,45,57.0,0.0,80,0.00,,CLR,0.00,VWS V13.01,2013-09-12 00:20:00,
2013-09-11 20:25:00,72.1,65.4,30.38,NE,45,57.0,0.0,80,0.00,,CLR,0.00,VWS V13.01,2013-09-12 00:25:00,
2013-09-11 20:30:00,71.9,65.6,30.38,NE,45,57.0,0.0,80,0.00,,CLR,0.00,VWS V13.01,2013-09-12 00:30:00,
2013-09-11 20:35:00,71.7,65.3,30.37,NE,45,57.0,0.0,81,0.00,,CLR,0.00,VWS V13.01,2013-09-12 00:35:00,
2013-09-11 20:40:00,71.4,65.6,30.38,NE,45,57.0,0.0,81,0.00,,CLR,0.00,VWS V13.01,2013-09-12 00:40:00,
2013-09-11 20:45:00,71.2,65.6,30.38,NE,45,57.0,0.0,82,0.00,,CLR,0.00,VWS V13.01,2013-09-12 00:45:00,
2013-09-11 20:50:00,71.0,65.4,30.38,NW,315,57.0,0.0,82,0.00,,CLR,0.00,VWS V13.01,2013-09-12 00:50:00,
2013-09-11 20:55:00,71.0,65.3,30.38,NW,315,57.0,0.0,82,0.00,,CLR,0.00,VWS V13.01,2013-09-12 00:55:00,
2013-09-11 21:00:00,70.5,65.3,30.38,NW,315,57.0,0.0,83,0.00,,CLR,0.00,VWS V13.01,2013-09-12 01:00:00,
2013-09-11 21:05:00,70.5,65.3,30.38,NW,315,57.0,0.0,83,0.00,,CLR,0.00,VWS V13.01,2013-09-12 01:05:00,
2013-09-11 21:10:00,70.3,65.1,30.38,NW,315,57.0,0.0,83,0.00,,CLR,0.00,VWS V13.01,2013-09-12 01:10:00,
2013-09-11 21:15:00,70.3,65.1,30.38,NW,315,57.0,0.0,83,0.00,,CLR,0.00,VWS V13.01,2013-09-12 01:15:00,
2013-09-11 21:20:00,70.5,64.9,30.38,NW,315,57.0,0.0,83,0.00,,CLR,0.00,VWS V13.01,2013-09-12 01:20:00,
2013-09-11 21:25:00,70.3,64.9,30.38,NW,315,57.0,0.0,83,0.00,,CLR,0.00,VWS V13.01,2013-09-12 01:25:00,
2013-09-11 21:31:00,70.3,64.7,30.38,NW,315,57.0,0.0,83,0.00,,CLR,0.00,VWS V13.01,2013-09-12 01:31:00,
2013-09-11 21:36:00,69.9,64.5,30.38,NW,315,57.0,0.0,84,0.00,,SCT120,0.00,VWS V13.01,2013-09-12 01:36:00,
2013-09-11 21:41:00,69.9,64.8,30.37,NW,315,57.0,0.0,84,0.00,,SCT120,0.00,VWS V13.01,2013-09-12 01:41:00,
2013-09-11 21:46:00,69.9,64.6,30.37,NW,315,57.0,0.0,84,0.00,,SCT120,0.00,VWS V13.01,2013-09-12 01:46:00,
2013-09-11 21:51:00,69.6,64.6,30.37,NW,315,57.0,0.0,84,0.00,,SCT120,0.00,VWS V13.01,2013-09-12 01:51:00,
2013-09-11 21:56:00,69.4,64.4,30.37,NW,315,57.0,0.0,84,0.00,,SCT120,0.00,VWS V13.01,2013-09-12 01:56:00,
2013-09-11 22:01:00,69.4,64.4,30.37,NW,315,57.0,0.0,84,0.00,,SCT120,0.00,VWS V13.01,2013-09-12 02:01:00,
2013-09-11 22:06:00,69.2,64.2,30.37,NW,315,57.0,0.0,84,0.00,,CLR,0.00,VWS V13.01,2013-09-12 02:06:00,
2013-09-11 22:11:00,69.0,64.3,30.37,NW,315,57.0,0.0,85,0.00,,CLR,0.00,VWS V13.01,2013-09-12 02:11:00,
2013-09-11 22:16:00,68.9,64.3,30.37,NW,315,57.0,0.0,85,0.00,,CLR,0.00,VWS V13.01,2013-09-12 02:16:00,
2013-09-11 22:21:00,69.0,64.3,30.37,NW,315,57.0,0.0,85,0.00,,CLR,0.00,VWS V13.01,2013-09-12 02:21:00,
2013-09-11 22:26:00,69.0,64.3,30.36,NW,315,57.0,0.0,86,0.00,,CLR,0.00,VWS V13.01,2013-09-12 02:26:00,
2013-09-11 22:31:00,69.0,64.6,30.36,NW,315,57.0,0.0,86,0.00,,CLR,0.00,VWS V13.01,2013-09-12 02:31:00,
2013-09-11 22:36:00,69.0,64.3,30.36,NW,315,57.0,0.0,86,0.00,,,0.00,VWS V13.01,2013-09-12 02:36:00,
2013-09-11 22:41:00,69.0,64.6,30.36,NW,315,57.0,0.0,86,0.00,,,0.00,VWS V13.01,2013-09-12 02:41:00,
2013-09-11 22:46:00,68.9,64.6,30.36,NW,315,57.0,0.0,85,0.00,,,0.00,VWS V13.01,2013-09-12 02:46:00,
2013-09-11 22:51:00,68.7,64.0,30.36,NW,315,57.0,0.0,85,0.00,,,0.00,VWS V13.01,2013-09-12 02:51:00,
2013-09-11 22:56:00,68.5,64.0,30.36,NW,315,57.0,0.0,85,0.00,,,0.00,VWS V13.01,2013-09-12 02:56:00,
2013-09-11 23:01:00,68.3,63.6,30.37,NW,315,57.0,0.0,85,0.00,,,0.00,VWS V13.01,2013-09-12 03:01:00,
2013-09-11 23:06:00,68.1,63.4,30.36,NW,315,57.0,0.0,85,0.00,,,0.00,VWS V13.01,2013-09-12 03:06:00,
2013-09-11 23:11:00,68.1,63.8,30.36,NW,315,57.0,0.0,86,0.00,,,0.00,VWS V13.01,2013-09-12 03:11:00,
2013-09-11 23:17:00,68.1,63.8,30.36,NW,315,57.0,0.0,86,0.00,,,0.00,VWS V13.01,2013-09-12 03:17:00,
2013-09-11 23:22:00,68.1,63.8,30.36,NW,315,57.0,0.0,86,0.00,,,0.00,VWS V13.01,2013-09-12 03:22:00,
2013-09-11 23:27:00,68.1,63.8,30.36,SSW,202,57.0,0.0,86,0.00,,,0.00,VWS V13.01,2013-09-12 03:27:00,
2013-09-11 23:32:00,68.1,64.3,30.36,SE,135,57.0,0.0,86,0.00,,,0.00,VWS V13.01,2013-09-12 03:32:00,
2013-09-11 23:37:00,68.3,64.5,30.36,South,180,57.0,0.0,87,0.00,,,0.00,VWS V13.01,2013-09-12 03:37:00,
2013-09-11 23:42:00,68.5,64.5,30.36,SSE,158,57.0,0.0,87,0.00,,,0.00,VWS V13.01,2013-09-12 03:42:00,
2013-09-11 23:47:00,68.7,64.7,30.36,South,180,57.0,0.0,87,0.00,,,0.00,VWS V13.01,2013-09-12 03:47:00,
2013-09-11 23:52:00,68.7,65.0,30.35,South,180,57.0,0.0,87,0.00,,,0.00,VWS V13.01,2013-09-12 03:52:00,
2013-09-11 23:57:00,68.7,65.0,30.36,WSW,248,57.0,0.0,87,0.00,,,0.00,VWS V13.01,2013-09-12 03:57:00,